STARLINK-31997, 60288

Orbit data source: Space-Track

STARLINK-31997, 60288 is a payload satellite owned by SpaceX/Seattle (US) in LEO that was launched on Sun, 28 Jul 2024 UTC via an FALCON 9 launch vehicle from the Air Force Eastern Test Range (AFETR). Payload-class satellites include a variety of spacecraft equipped with specific instruments for various scientific and technological missions. These include communications satellites like Starlink; space stations such as the ISS; scientific satellites like the Hubble; Earth observation satellites from companies like Planet Labs, Umbra, and HawkEye 360; GPS; miniature CubeSats for education and research; and military/defense satellites.

Loading next visibility...
Identifier
60288, 2024-132L
Orbit
LEO
Country
Flag of USUS
Related business
Manufacturer
SpaceX/Seattle
Mission
Operational Commercial Communications
Bus & Motor
STARLINK V2M, Unknown motor
Mass
730 kg wet, ~700 kg dry
Launch date (UTC)
2024-07-28 (2 years ago)
Launch vehicle
FALCON 9
Launch site
Air Force Eastern Test Range (AFETR)
Object type
Payload
Rocket body
Debris
Shape & HBR
Box + 2 Pan, 17.7 m
Radar Cross Section
33.884 m², Large (>1 m²)

Expand to show TLE details & history
Last TLE update: 1 day ago

TLE from 1 day ago
0 STARLINK-31997
1 60288U 24132L   26254.07149368  .00002529  00000-0  85990-4 0  9996
2 60288  53.1588 269.8983 0001078  83.1384 276.9742 15.34381734119966
Epoch: 2026-09-11T01:42Z
TLE epoch observation values (Epoch: 2026-09-11T01:42:57.053Z)
Latitude
0.00002°
Longitude
-105.93952°
Altitude
463.569 km
Speed
7.636 km/s
True Right ascension
17h 59m 35s
True Declination
0° 00' 00"
Sunlit
Object was in daylight at epoch
Visualization orbit readout
Latitude
Unknown
Longitude
Unknown
Altitude
Unknown
Speed
Unknown
Apparent Right ascension
Unknown
Apparent Declination
Unknown
Sunlit
N/A
Visualization observer readout
Local Sidereal Time
02:53:46
Azimuth
Unknown
Elevation
Unknown
Doppler factor
Unknown
Orbital elements
Apogee altitude
463.752 km
Perigee altitude
462.277 km
Semi-major axis
6,841.152 km
Eccentricity
0.00011
Inclination
53.1588°
RAAN
269.8983°
Arg. of periapsis
83.1384°
True anomaly
276.96194°
Mean anomaly
276.9742°
Eccentric anomaly
276.96807°
Mean motion
3.83574 °/min
Orbital period
93.85 mins
BSTAR
0.00008599
Loading maneuver chart data...
Computing Atmospheric mass density...
Loading historical data...
Loading historical data...
Loading historical data...
Loading historical data...
Loading historical data...
Loading historical data...
Loading historical data...

Documentation

Showing up to 5 results
|